Location: Asheville, NC
(35.6000°N, 82.5500°W)
Time: 04:30:46

SO-50 - Pass Details

Date: 06 January 2018
Orbit: 605 x 682 km, 64.6° (Epoch: 20 March)

Event Time Altitude Azimuth Distance (km) Brightness Sun altitude
Rises 18:36:44 0° 332° (NNW) 2,974 ? -12.9°
Reaches altitude 10° 18:39:03 10° 335° (NNW) 2,072 ? -13.4°
Maximum altitude 18:43:44 70° 59° (ENE) 711 ? -14.3°
Drops below altitude 10° 18:48:30 10° 143° (SE) 2,099 ? -15.2°
Sets 18:50:51 0° 146° (SE) 3,016 ? -15.6°
